Weather History for KARB - October, 2011

Change the Weather History Date:

Thursday, October 20, 2011

  Actual Average Record
Temperature  
Mean Temperature 46 °F -  
Max Temperature 50 °F 56 °F 75 °F (2003)
Min Temperature 42 °F 35 °F 26 °F (2002)
Degree Days  
Heating Degree Days 19    
Moisture  
Dew Point 46 °F    
Average Humidity 95    
Maximum Humidity 100    
Minimum Humidity 85    
Precipitation  
Precipitation 0.36 in - - ()
Sea Level Pressure  
Sea Level Pressure 29.25 in    
Wind  
Wind Speed 12 mph (North)    
Max Wind Speed 20 mph    
Max Gust Speed 28 mph    
Visibility 5 miles    
Events Rain    
Averages and records for this station are not official NWS values.
T = Trace of Precipitation, MM = Missing Value Source: NWS Daily Summary

Daily Weather History Graph

Daily Weather History Graph

Search for Another Location

Airport or City:

Trip Planner

Search our weather history database for the weather conditions in past years. The results will help you decide how hot, cold, wet, or windy it might be!

Date:

Astronomy

Oct. 20, 2011 Rise Set
Actual Time 7:53 AM EDT 6:45 PM EDT
Civil Twilight 7:24 AM EDT 7:14 PM EDT
Nautical Twilight 6:52 AM EDT 7:46 PM EDT
Astronomical Twilight 6:19 AM EDT 8:19 PM EDT
Moon 12:29 AM EDT (10/20) 3:01 PM EDT (10/20)
Length of Visible Light 11h 49m
Length of Day
10h 52m
Last Quarter, 44% of the Moon is Illuminated
Oct 20
Last Quarter
Oct 26
New
Nov 2
First Quarter
Nov 10
Full
Nov 18
Last Quarter

Hourly Weather History & Observations

Time (EDT) Temp. Windchill Dew Point Humidity Pressure Visibility Wind Dir Wind Speed Gust Speed Precip Events Conditions
12:17 AM 48.2 °F - 46.4 °F 93% 29.15 in 5.0 mi NNE 17.3 mph 26.5 mph 0.02 in   Overcast
12:53 AM 48.9 °F - 46.9 °F 93% 29.14 in 3.0 mi NNE 19.6 mph 27.6 mph 0.05 in Rain Light Rain
1:53 AM 48.9 °F - 46.9 °F 93% 29.11 in 6.0 mi NNE 16.1 mph 24.2 mph 0.06 in Rain Light Rain
2:53 AM 48.9 °F - 48.0 °F 97% 29.09 in 8.0 mi NNE 16.1 mph 26.5 mph 0.04 in   Overcast
3:34 AM 50.0 °F - 48.2 °F 94% 29.09 in 10.0 mi NNE 16.1 mph 23.0 mph N/A   Overcast
3:53 AM 50.0 °F - 48.9 °F 96% 29.09 in 4.0 mi NNE 12.7 mph 21.9 mph 0.00 in Rain Light Rain
4:02 AM 50.0 °F - 48.2 °F 94% 29.08 in 2.5 mi NE 15.0 mph 23.0 mph 0.01 in Rain Light Rain
4:15 AM 50.0 °F - 48.2 °F 94% 29.08 in 3.0 mi NNE 16.1 mph 21.9 mph 0.01 in Rain Light Rain
4:30 AM 50.0 °F - 48.2 °F 94% 29.08 in 2.5 mi NNE 13.8 mph - 0.02 in Rain Light Rain
4:53 AM 50.0 °F - 48.9 °F 96% 29.08 in 2.5 mi NE 12.7 mph - 0.05 in Rain Light Rain
5:53 AM 50.0 °F - 48.9 °F 96% 29.10 in 2.5 mi East 4.6 mph - 0.06 in Rain Light Rain
6:00 AM 48.2 °F - 48.2 °F 100% 29.10 in 3.0 mi ESE 6.9 mph - 0.00 in Rain Light Rain
6:53 AM 48.9 °F - 48.0 °F 97% 29.11 in 10.0 mi East 3.5 mph - 0.00 in   Overcast
7:19 AM 48.2 °F - 48.2 °F 100% 29.10 in 5.0 mi NE 3.5 mph - N/A   Overcast
7:53 AM 48.9 °F - 48.0 °F 97% 29.12 in 3.0 mi East 5.8 mph - 0.01 in   Overcast
8:01 AM 48.2 °F - 48.2 °F 100% 29.12 in 2.0 mi East 5.8 mph - N/A   Overcast
8:21 AM 48.2 °F - 48.2 °F 100% 29.12 in 2.5 mi Calm Calm - N/A   Overcast
8:26 AM 48.2 °F - 48.2 °F 100% 29.13 in 2.5 mi ENE 4.6 mph - N/A   Overcast
8:37 AM 48.2 °F - 48.2 °F 100% 29.14 in 3.0 mi NE 3.5 mph - N/A   Overcast
8:46 AM 48.2 °F - 48.2 °F 100% 29.14 in 3.0 mi ENE 3.5 mph - N/A   Overcast
8:53 AM 48.9 °F - 48.0 °F 97% 29.14 in 2.5 mi ENE 4.6 mph - N/A   Overcast
9:40 AM 48.2 °F - 48.2 °F 100% 29.15 in 3.0 mi Calm Calm - 0.01 in   Overcast
9:51 AM 48.2 °F - 48.2 °F 100% 29.16 in 2.5 mi Calm Calm - 0.01 in   Overcast
9:53 AM 48.9 °F - 48.0 °F 97% 29.16 in 2.0 mi Calm Calm - 0.01 in   Overcast
9:57 AM 48.2 °F - 48.2 °F 100% 29.16 in 1.2 mi Calm Calm - N/A   Overcast
10:22 AM 48.2 °F - 48.2 °F 100% 29.17 in 2.0 mi NNW 5.8 mph - 0.02 in Rain Light Rain
10:43 AM 48.2 °F - 48.2 °F 100% 29.17 in 3.0 mi NNW 9.2 mph - 0.03 in Rain Light Rain
10:50 AM 48.2 °F - 48.2 °F 100% 29.18 in 2.5 mi NNW 9.2 mph - 0.03 in   Overcast
10:53 AM 48.9 °F - 48.0 °F 97% 29.18 in 2.5 mi NNW 10.4 mph - 0.03 in   Overcast
11:09 AM 48.2 °F - 46.4 °F 93% 29.19 in 4.0 mi NNW 10.4 mph - 0.00 in   Overcast
11:27 AM 48.2 °F - 46.4 °F 93% 29.20 in 3.0 mi NNW 12.7 mph 19.6 mph 0.00 in   Overcast
11:36 AM 48.2 °F - 46.4 °F 93% 29.20 in 2.5 mi NNW 13.8 mph - 0.00 in   Overcast
11:58 AM 46.4 °F 40.1 °F 44.6 °F 93% 29.22 in 2.0 mi NW 15.0 mph 26.5 mph 0.00 in Rain Light Rain
12:08 PM 46.4 °F 40.4 °F 44.6 °F 93% 29.22 in 3.0 mi NW 13.8 mph 24.2 mph 0.00 in   Overcast
12:21 PM 46.4 °F 41.1 °F 44.6 °F 93% 29.23 in 4.0 mi NW 11.5 mph 21.9 mph 0.00 in   Overcast
12:53 PM 46.0 °F 39.3 °F 44.1 °F 93% 29.25 in 7.0 mi NW 16.1 mph 23.0 mph 0.00 in   Overcast
1:53 PM 46.0 °F 39.9 °F 44.1 °F 93% 29.27 in 9.0 mi NW 13.8 mph 26.5 mph 0.01 in Rain Light Rain
2:42 PM 46.4 °F 40.1 °F 42.8 °F 87% 29.30 in 10.0 mi NW 15.0 mph 21.9 mph 0.01 in Rain Light Rain
2:53 PM 45.0 °F 39.3 °F 42.1 °F 90% 29.31 in 10.0 mi NW 11.5 mph 23.0 mph 0.01 in Rain Light Rain
4:53 PM 44.1 °F 37.1 °F 39.9 °F 85% 29.40 in 10.0 mi WNW 15.0 mph 23.0 mph 0.00 in Rain Light Rain
5:53 PM 44.1 °F 38.6 °F 42.1 °F 93% 29.45 in 6.0 mi WNW 10.4 mph - 0.01 in Rain Light Rain
6:03 PM 44.6 °F 38.8 °F 41.0 °F 87% 29.45 in 5.0 mi NW 11.5 mph 24.2 mph 0.00 in Rain Light Rain
6:10 PM 44.6 °F 37.4 °F 41.0 °F 87% 29.46 in 8.0 mi NW 16.1 mph 23.0 mph 0.00 in Rain Light Rain
6:53 PM 43.0 °F 36.8 °F 39.9 °F 89% 29.50 in 10.0 mi WNW 11.5 mph - 0.00 in   Overcast
8:17 PM 42.8 °F 36.6 °F 42.8 °F 100% 29.56 in 10.0 mi West 11.5 mph - 0.00 in Rain Light Rain
8:44 PM 42.8 °F 35.8 °F 42.8 °F 100% 29.57 in 5.0 mi West 13.8 mph - 0.01 in Rain Light Rain
8:53 PM 44.1 °F 37.7 °F 42.1 °F 93% 29.58 in 10.0 mi WNW 12.7 mph - 0.01 in   Overcast
9:03 PM 44.6 °F 38.1 °F 41.0 °F 87% 29.58 in 9.0 mi WNW 13.8 mph 19.6 mph 0.00 in Rain Light Rain
9:53 PM 44.1 °F 38.1 °F 42.1 °F 93% 29.62 in 9.0 mi WNW 11.5 mph 19.6 mph 0.01 in   Overcast
10:53 PM 44.1 °F 38.1 °F 41.0 °F 89% 29.66 in 8.0 mi WNW 11.5 mph - 0.00 in   Overcast
11:53 PM 44.1 °F 37.7 °F 41.0 °F 89% 29.69 in 10.0 mi WNW 12.7 mph - 0.00 in   Overcast